Printer-friendly version

IAU Minor Planet Center

Minor Planet Center

MPEC 2001-U56: 2001 UT16

The following Minor Planet Electronic Circular may be linked-to from your own Web pages, but must not otherwise be redistributed electronically.


Read MPEC 2001-U55 Read MPEC 2001-U57


M.P.E.C. 2001-U56                                Issued 2001 Oct. 26, 21:17 UT

     The Minor Planet Electronic Circulars contain information on unusual
         minor planets and routine data on comets.  They are published
   on behalf of Commission 20 of the International Astronomical Union by the
          Minor Planet Center, Smithsonian Astrophysical Observatory,
                          Cambridge, MA 02138, U.S.A.

             Prepared using the Tamkin Foundation Computer Network

                              MPC@CFA.HARVARD.EDU
          URL http://cfa-www.harvard.edu/iau/mpc.html  ISSN 1523-6714

                                   2001 UT16

Observations:
     K01U16T* C2001 10 24.25734 01 15 42.78 +09 44 22.6          19.3        704
     K01U16T  C2001 10 24.27387 01 16 15.70 +09 42 04.1          19.6        704
     K01U16T  C2001 10 24.29042 01 16 48.72 +09 39 45.4          19.1        704
     K01U16T  C2001 10 24.30697 01 17 21.76 +09 37 25.2          19.4        704
     K01U16T  C2001 10 25.23609 01 51 42.53 +07 14 45.7          18.4        704
     K01U16T  C2001 10 25.25274 01 52 18.72 +07 12 00.7          18.7        704
     K01U16T  C2001 10 25.26961 01 52 55.40 +07 09 12.7          18.8        704
     K01U16T  C2001 10 25.28631 01 53 31.73 +07 06 25.4          18.6        704
     K01U16T  C2001 10 25.30293 01 54 07.87 +07 03 37.2          18.8        704

Observer details:
704 Lincoln Laboratory ETS, New Mexico.  Observers M. Blythe, F. Shelly,
    M. Bezpalko, R. Huber, L. Manguso, S. Adams, J. Piscitelli.  Measurers
    J. Stuart, R. Sayer, J. B. Evans, H. Viggh.  1.0-m f/2.15 reflector + CCD.

Orbital elements:
2001 UT16
Epoch 2001 Oct. 18.0 TT = JDT 2452200.5                 Spahr
M 355.26124              (2000.0)            P               Q
n   0.31013894     Peri.  190.36332     +0.75141773     -0.65682206
a   2.1615495      Node   210.98356     +0.61378610     +0.73078689
e   0.5304846      Incl.    7.01803     +0.24215287     +0.18583678
P   3.18           H   25.5           G   0.15
From 9 observations 2001 Oct. 24-25.

Ephemeris:
2001 UT16                a,e,i = 2.16, 0.53, 7                   q = 1.0149
Date    TT    R. A. (2000) Decl.     Delta      r     Elong.  Phase     V
2001 10 18    22 55.30   +16 35.9    0.046    1.032   141.4    37.0    20.4
2001 10 19    23 08.88   +16 10.6    0.042    1.030   143.9    34.7    20.1
2001 10 20    23 25.09   +15 36.0    0.038    1.028   147.0    31.8    19.8
2001 10 21    23 44.47   +14 48.8    0.035    1.026   150.9    28.2    19.5
2001 10 22    00 07.59   +13 44.2    0.032    1.025   155.7    23.6    19.2
2001 10 23    00 34.98   +12 16.7    0.029    1.023   161.6    17.9    18.8
2001 10 24    01 06.81   +10 21.3    0.027    1.021   168.3    11.4    18.4
2001 10 25    01 42.66   +07 55.9    0.026    1.020   174.4     5.4    18.0
2001 10 26    02 21.24   +05 05.0    0.025    1.019   171.2     8.5    18.1
2001 10 27    03 00.49   +02 01.2    0.025    1.018   162.7    16.9    18.4
2001 10 28    03 38.11   -00 58.7    0.026    1.017   153.9    25.5    18.8
2001 10 29    04 12.35   -03 40.5    0.028    1.016   145.9    33.3    19.1
2001 10 30    04 42.31   -05 57.0    0.030    1.016   139.0    39.9    19.5
2001 10 31    05 07.87   -07 47.7    0.032    1.015   133.2    45.5    19.8
2001 11 01    05 29.40   -09 15.5    0.035    1.015   128.5    49.9    20.1
2001 11 02    05 47.46   -10 24.6    0.039    1.015   124.8    53.4    20.4
2001 11 03    06 02.63   -11 19.2    0.042    1.015   121.8    56.2    20.7
2001 11 04    06 15.42   -12 02.4    0.046    1.015   119.4    58.4    20.9
2001 11 05    06 26.27   -12 37.0    0.050    1.015   117.5    60.0    21.2
2001 11 06    06 35.53   -13 04.9    0.054    1.016   116.0    61.3    21.4
2001 11 07    06 43.49   -13 27.6    0.058    1.017   114.8    62.2    21.6
2001 11 08    06 50.37   -13 46.2    0.062    1.017   113.9    62.9    21.7
2001 11 09    06 56.35   -14 01.5    0.066    1.018   113.3    63.3    21.9
2001 11 10    07 01.57   -14 14.2    0.070    1.019   112.8    63.6    22.0
2001 11 11    07 06.16   -14 24.6    0.074    1.021   112.5    63.7    22.1
2001 11 12    07 10.19   -14 33.2    0.078    1.022   112.3    63.6    22.3
2001 11 13    07 13.76   -14 40.3    0.082    1.024   112.3    63.5    22.4
2001 11 14    07 16.91   -14 46.0    0.086    1.025   112.3    63.2    22.5
2001 11 15    07 19.72   -14 50.6    0.090    1.027   112.5    62.9    22.6
2001 11 16    07 22.20   -14 54.1    0.094    1.029   112.7    62.5    22.7
2001 11 17    07 24.42   -14 56.7    0.098    1.031   113.0    62.0    22.7

Timothy B. Spahr             (C) Copyright 2001 MPC           M.P.E.C. 2001-U56

Read MPEC 2001-U55 Read MPEC 2001-U57


Our Web policy. Index to the CBAT/MPC/ICQ pages.


Valid HTML 4.01!